Time,TemperatureF,DewpointF,PressureIn,WindDirection,WindDirectionDegrees,WindSpeedMPH,WindSpeedGustMPH,Humidity,HourlyPrecipIn,Conditions,Clouds,dailyrainin,SoftwareType,DateUTC
2013-03-18 00:02:00,33.4,24.4,29.68,ESE,103,2.0,6.0,69,0.00,,,0.00,meteohub,2013-03-17 23:02:00,
2013-03-18 00:32:00,33.4,24.8,29.68,SE,132,0.0,7.0,70,0.00,,,0.00,meteohub,2013-03-17 23:32:00,
2013-03-18 01:02:00,33.3,24.8,29.68,SE,128,2.0,6.0,71,0.00,,,0.00,meteohub,2013-03-18 00:02:00,
2013-03-18 01:32:00,33.3,24.8,29.67,SSE,155,1.0,6.0,71,0.00,,,0.00,meteohub,2013-03-18 00:32:00,
2013-03-18 02:02:00,33.3,24.8,29.66,SE,135,1.0,8.0,71,0.00,,,0.00,meteohub,2013-03-18 01:02:00,
2013-03-18 02:32:00,33.1,25.0,29.67,ESE,102,0.0,5.0,72,0.00,,,0.00,meteohub,2013-03-18 01:32:00,
2013-03-18 03:02:00,33.1,25.3,29.66,East,80,2.0,3.0,73,0.00,,,0.00,meteohub,2013-03-18 02:02:00,
2013-03-18 03:32:00,32.5,25.2,29.65,East,80,0.0,0.0,74,0.00,,,0.00,meteohub,2013-03-18 02:32:00,
2013-03-18 04:02:00,31.8,25.5,29.64,East,80,0.0,1.0,77,0.00,,,0.00,meteohub,2013-03-18 03:02:00,
2013-03-18 04:32:00,31.6,25.5,29.62,SSW,205,0.0,3.0,78,0.00,,,0.00,meteohub,2013-03-18 03:32:00,
2013-03-18 05:02:00,31.5,25.3,29.61,East,86,2.0,5.0,78,0.00,,,0.00,meteohub,2013-03-18 04:02:00,
2013-03-18 05:32:00,30.7,25.0,29.61,ENE,74,0.0,1.0,79,0.00,,,0.00,meteohub,2013-03-18 04:32:00,
2013-03-18 06:02:00,30.2,25.2,29.60,ENE,74,0.0,2.0,81,0.00,,,0.00,meteohub,2013-03-18 05:02:00,
2013-03-18 06:32:00,29.8,25.0,29.60,ENE,74,0.0,2.0,82,0.00,,,0.00,meteohub,2013-03-18 05:32:00,
2013-03-18 07:02:00,29.8,25.3,29.60,ENE,74,0.0,2.0,83,0.00,,,0.00,meteohub,2013-03-18 06:02:00,
2013-03-18 07:32:00,31.6,25.9,29.58,NNE,22,1.0,3.0,79,0.00,,,0.00,meteohub,2013-03-18 06:32:00,
2013-03-18 08:02:00,33.4,26.4,29.57,East,88,1.0,8.0,75,0.00,,,0.00,meteohub,2013-03-18 07:02:00,
2013-03-18 08:32:00,33.6,26.2,29.57,ESE,109,2.0,6.0,74,0.00,,,0.00,meteohub,2013-03-18 07:32:00,
2013-03-18 09:02:00,34.3,27.0,29.56,NNE,26,2.0,5.0,74,0.00,,,0.00,meteohub,2013-03-18 08:02:00,
2013-03-18 09:32:00,34.9,27.1,29.55,East,95,2.0,5.0,73,0.00,,,0.00,meteohub,2013-03-18 08:32:00,
2013-03-18 10:02:00,35.4,27.3,29.53,NNE,28,4.0,7.0,72,0.00,,,0.00,meteohub,2013-03-18 09:02:00,
2013-03-18 10:32:00,36.7,27.9,29.52,ESE,102,0.0,4.0,70,0.00,,,0.00,meteohub,2013-03-18 09:32:00,
2013-03-18 11:02:00,37.2,28.0,29.51,SE,144,0.0,13.0,69,0.00,,,0.00,meteohub,2013-03-18 10:02:00,
2013-03-18 11:32:00,38.1,28.6,29.49,ESE,109,2.0,5.0,68,0.00,,,0.00,meteohub,2013-03-18 10:32:00,
2013-03-18 12:02:00,39.9,29.5,29.47,NE,43,2.0,8.0,66,0.00,,,0.00,meteohub,2013-03-18 11:02:00,
2013-03-18 12:32:00,41.0,29.8,29.46,ESE,108,1.0,6.0,64,0.00,,,0.00,meteohub,2013-03-18 11:32:00,
2013-03-18 13:02:00,42.1,30.4,29.43,WNW,296,2.0,9.0,63,0.00,,,0.00,meteohub,2013-03-18 12:02:00,
2013-03-18 13:32:00,43.0,31.3,29.42,SE,145,3.0,8.0,63,0.00,,,0.00,meteohub,2013-03-18 12:32:00,
2013-03-18 14:02:00,43.2,31.5,29.39,ESE,109,2.0,9.0,63,0.00,,,0.00,meteohub,2013-03-18 13:02:00,
2013-03-18 14:32:00,42.3,32.5,29.38,East,83,1.0,7.0,68,0.00,,,0.00,meteohub,2013-03-18 13:32:00,
2013-03-18 15:02:00,41.2,33.4,29.38,East,100,0.0,10.0,74,0.00,,,0.00,meteohub,2013-03-18 14:02:00,
2013-03-18 15:32:00,39.7,34.2,29.36,NE,34,3.0,8.0,80,0.00,,,0.00,meteohub,2013-03-18 14:32:00,
2013-03-18 16:02:00,38.8,34.7,29.34,ENE,78,0.0,7.0,85,0.00,,,0.00,meteohub,2013-03-18 15:02:00,
2013-03-18 16:32:00,38.1,34.5,29.34,NE,42,2.0,7.0,87,0.00,,,0.00,meteohub,2013-03-18 15:32:00,
2013-03-18 17:02:00,37.8,34.9,29.33,ENE,69,2.0,3.0,89,0.01,,,0.01,meteohub,2013-03-18 16:02:00,
2013-03-18 17:32:00,36.9,34.5,29.32,ENE,61,0.0,6.0,91,0.01,,,0.01,meteohub,2013-03-18 16:32:00,
2013-03-18 18:02:00,36.5,34.2,29.31,NE,41,5.0,5.0,91,0.00,,,0.01,meteohub,2013-03-18 17:02:00,
2013-03-18 18:32:00,35.8,33.6,29.31,NNE,18,0.0,5.0,92,0.02,,,0.02,meteohub,2013-03-18 17:32:00,
2013-03-18 19:02:00,35.1,33.3,29.30,SSW,204,0.0,3.0,93,0.02,,,0.03,meteohub,2013-03-18 18:02:00,
2013-03-18 19:32:00,34.5,32.9,29.30,SSW,210,1.0,2.0,94,0.01,,,0.03,meteohub,2013-03-18 18:32:00,
2013-03-18 20:02:00,34.2,32.9,29.29,SSW,210,0.0,2.0,95,0.00,,,0.03,meteohub,2013-03-18 19:02:00,
2013-03-18 20:32:00,34.0,32.7,29.28,SSW,210,0.0,1.0,95,0.00,,,0.03,meteohub,2013-03-18 19:32:00,
2013-03-18 21:02:00,33.8,32.7,29.27,SSW,210,1.0,2.0,96,0.00,,,0.03,meteohub,2013-03-18 20:02:00,
2013-03-18 21:32:00,33.8,32.7,29.27,SSW,210,0.0,1.0,96,0.00,,,0.03,meteohub,2013-03-18 20:32:00,
2013-03-18 22:02:00,33.6,32.5,29.26,SSW,210,0.0,2.0,96,0.00,,,0.03,meteohub,2013-03-18 21:02:00,
2013-03-18 22:32:00,33.4,32.4,29.26,SSW,210,0.0,2.0,96,0.00,,,0.03,meteohub,2013-03-18 21:32:00,
2013-03-18 23:02:00,33.4,32.4,29.25,SSW,210,0.0,1.0,96,0.00,,,0.03,meteohub,2013-03-18 22:02:00,
2013-03-18 23:32:00,33.4,32.4,29.24,SSW,210,0.0,2.0,96,0.00,,,0.03,meteohub,2013-03-18 22:32:00,